DW8885 Weather Reports


time (UTC)temp
C
wind
direction
speed
KPH
gust
KPH
rain 1hr
cm
rain 24hr
cm
rain mn
cm
humidity
%
barometer
mb
20260509090016 11 191 3.2 8.0 0.00 0.00 0.00 86 1002.4
20260509084551 11 136 1.6 11.3 0.00 0.00 0.00 85 1002.5
20260509083017 11 153 1.6 9.7 0.00 0.00 0.00 86 1002.6
20260509081550 11 138 3.2 11.3 0.00 0.00 0.00 85 1002.7
20260509080024 11 182 3.2 11.3 0.00 0.00 0.00 84 1002.9
20260509074554 12 157 6.4 19.3 0.00 0.00 0.00 84 1002.8
20260509073037 12 217 3.2 17.7 0.00 0.00 0.00 83 1003.0
20260509071554 12 219 1.6 11.3 0.00 0.00 0.00 82 1003.3
20260509070022 12 229 6.4 16.1 0.00 0.00 0.00 83 1003.4
20260509064552 12 179 3.2 14.5 0.00 0.00 0.00 83 1003.6
20260509063028 12 155 3.2 11.3 0.00 0.00 0.00 83 1003.5
20260509061557 12 212 3.2 14.5 0.00 0.00 0.00 82 1003.6
20260509060125 12 163 1.6 8.0 0.00 0.00 0.00 82 1003.9
20260509054605 12 196 4.8 16.1 0.00 0.00 0.00 83 1003.8
20260509053033 12 165 1.6 8.0 0.00 0.00 0.00 83 1004.0
20260509051501 12 166 0.0 11.3 0.00 0.00 0.00 83 1004.2
20260509050036 12 174 3.2 16.1 0.00 0.00 0.00 82 1004.2
20260509044602 12 149 6.4 12.9 0.00 0.00 0.00 82 1004.2
20260509043042 12 179 3.2 11.3 0.00 0.00 0.00 81 1004.2
20260509041502 12 156 0.0 9.7 0.00 0.00 0.00 78 1004.4
20260509040034 12 150 1.6 11.3 0.00 0.00 0.00 76 1004.5
20260509034508 12 181 6.4 12.9 0.00 0.00 0.00 73 1004.7
20260509033036 12 134 0.0 3.2 0.00 0.00 0.00 67 1004.7
20260509031508 12 132 0.0 0.0 0.00 0.00 0.00 67 1004.8
20260509030041 12 122 0.0 1.6 0.00 0.00 0.00 67 1005.0
20260509024508 12 165 0.0 1.6 0.00 0.00 0.00 67 1005.0
20260509023036 12 170 0.0 1.6 0.00 0.00 0.00 67 1005.1
20260509021516 12 49 0.0 0.0 0.00 0.00 0.00 66 1005.0
20260509020039 12 49 0.0 0.0 0.00 0.00 0.00 66 1005.2
20260509014509 12 49 0.0 0.0 0.00 0.00 0.00 64 1005.2
20260509013054 13 49 0.0 0.0 0.00 0.00 0.00 63 1005.1
20260509011508 13 49 0.0 0.0 0.00 0.00 0.00 60 1005.0
20260509010041 14 49 0.0 0.0 0.00 0.00 0.00 58 1005.1
20260509004526 15 49 0.0 0.0 0.00 0.00 0.00 55 1005.2
20260509003046 15 49 0.0 0.0 0.00 0.00 0.00 53 1005.1
20260509001512 15 49 0.0 0.0 0.00 0.00 0.00 50 1005.1
20260509000045 16 49 0.0 4.8 0.00 0.00 0.00 47 1005.2
20260508234514 16 56 0.0 4.8 0.00 0.00 0.00 43 1005.2
20260508233053 17 35 0.0 3.2 0.00 0.00 0.00 41 1005.3
20260508231516 16 317 1.6 4.8 0.00 0.00 0.00 37 1005.4
20260508230057 16 88 1.6 4.8 0.00 0.00 0.00 35 1005.4
20260508224518 17 104 1.6 6.4 0.00 0.03 0.00 34 1005.5
20260508223052 17 326 1.6 4.8 0.00 0.03 0.00 33 1005.7
20260508221520 17 22 1.6 6.4 0.00 0.03 0.00 33 1005.8
20260508220054 17 65 3.2 8.0 0.00 0.03 0.00 35 1005.9
20260508214522 16 309 1.6 9.7 0.00 0.03 0.00 40 1005.9
20260508213054 16 304 1.6 12.9 0.00 0.03 0.00 44 1005.9
20260508211530 16 11 3.2 8.0 0.00 0.03 0.00 42 1005.9
20260508210113 16 293 3.2 12.9 0.00 0.03 0.00 48 1006.1
20260508204526 16 322 3.2 14.5 0.00 0.03 0.00 51 1006.2
20260508203058 16 302 1.6 8.0 0.00 0.03 0.00 63 1006.4
20260508201528 16 295 4.8 12.9 0.00 0.03 0.00 66 1006.7
20260508200108 15 261 1.6 9.7 0.00 0.03 0.00 55 1006.8
20260508194530 16 269 3.2 9.7 0.00 0.03 0.00 58 1006.9
20260508193111 15 296 4.8 9.7 0.00 0.03 0.00 58 1007.1
20260508191533 15 311 3.2 11.3 0.00 0.03 0.00 63 1007.4
20260508190002 15 350 3.2 9.7 0.00 0.03 0.00 60 1007.6
20260508184554 15 264 3.2 8.0 0.00 0.03 0.00 70 1007.8
20260508183006 15 329 1.6 11.3 0.00 0.03 0.00 73 1007.9
20260508181549 13 318 1.6 8.0 0.00 0.03 0.00 74 1008.1
20260508180006 13 282 3.2 8.0 0.00 0.03 0.00 77 1008.3
20260508174538 13 257 3.2 9.7 0.00 0.03 0.00 76 1008.5
20260508173008 13 304 1.6 6.4 0.00 0.03 0.00 80 1008.7
20260508171540 12 299 3.2 9.7 0.00 0.03 0.00 80 1009.1
20260508170015 12 244 3.2 11.3 0.00 0.03 0.00 82 1009.1
20260508164555 12 262 4.8 9.7 0.00 0.03 0.00 80 1009.2
20260508163012 11 219 1.6 11.3 0.00 0.03 0.00 82 1009.4
20260508161549 12 257 3.2 11.3 0.00 0.03 0.00 83 1009.7
20260508160017 11 263 1.6 8.0 0.00 0.03 0.00 84 1009.8
20260508154546 11 277 4.8 12.9 0.00 0.03 0.00 83 1009.8
20260508153016 11 200 3.2 11.3 0.00 0.03 0.00 83 1009.7
20260508151556 11 288 3.2 12.9 0.00 0.03 0.00 85 1009.7
20260508150021 11 309 1.6 12.9 0.00 0.03 0.00 85 1009.6
20260508144619 11 240 4.8 8.0 0.00 0.03 0.00 83 1009.7
20260508143022 11 286 0.0 4.8 0.00 0.03 0.00 83 1009.7
20260508141602 10 180 0.0 4.8 0.00 0.03 0.00 87 1009.8
20260508140023 10 164 3.2 8.0 0.00 0.03 0.00 89 1009.8
20260508134559 9 161 3.2 11.3 0.00 0.03 0.00 89 1010.1
20260508133031 8 127 0.0 4.8 0.00 0.03 0.00 89 1010.0
20260508131556 8 163 0.0 4.8 0.00 0.03 0.00 90 1010.1
20260508130027 8 157 0.0 3.2 0.00 0.03 0.00 90 1010.1
20260508124559 7 157 0.0 4.8 0.00 0.03 0.00 90 1010.1
20260508123028 6 151 0.0 3.2 0.00 0.03 0.00 90 1010.2
20260508121606 6 151 0.0 0.0 0.00 0.03 0.00 90 1010.2
20260508120030 6 156 1.6 9.7 0.00 0.03 0.00 90 1010.2
20260508114602 5 121 0.0 1.6 0.00 0.03 0.00 90 1009.9
20260508113034 5 121 0.0 0.0 0.00 0.03 0.00 90 1009.8
20260508111505 5 121 0.0 0.0 0.00 0.03 0.00 89 1009.7
20260508110047 5 121 0.0 0.0 0.00 0.03 0.00 89 1009.6
20260508104504 5 121 0.0 0.0 0.00 0.03 0.00 89 1009.5
20260508103036 5 121 0.0 3.2 0.00 0.03 0.00 89 1009.4
20260508101506 5 56 0.0 1.6 0.00 0.03 0.00 89 1009.6
20260508100038 5 56 0.0 0.0 0.00 0.03 0.00 89 1009.5
20260508094508 5 56 0.0 0.0 0.00 0.03 0.00 89 1009.5
20260508093040 5 56 0.0 0.0 0.00 0.03 0.00 89 1009.5
20260508091510 5 56 0.0 0.0 0.00 0.03 0.00 88 1009.6